This demonstration page uses our WeatherBlox Daily Observations layout. Learn more.

Left ArrowRight Arrow

39.08367, -84.50855

Hourly Observations for September 22, 2015

Temp ( °F °C ) Dew Point ( °F °C ) Humidity (%) Winds ( mph kmh ) Pressure ( in mb ) Visibility ( mi km ) Precip ( " mm )
12:53 am 00:53 Clear 52 11.1 52 11.1 100 100 Calm 30.11 1020 10 16 0.00 0.00
1:53 am 01:53 Clear 50 10 50 10 100 100 Calm 30.11 1020 9 14 0.00 0.00
2:53 am 02:53 Clear with Mist and Fog 50 10 50 10 100 100 Calm 30.12 1020 4 6 0.00 0.00
2:59 am 02:59 Clear with Mist and Fog 51 10.6 51 10.6 100 100 Calm 30.12 1020 2 3 0.00 0.00
3:06 am 03:06 Clear with Mist and Fog 50 10 50 10 100 100 Calm 30.12 1020 3 5 0.00 0.00
3:16 am 03:16 Clear with Mist and Fog 50 10 50 10 100 100 Calm 30.12 1020 2 2 0.00 0.00
3:31 am 03:31 Clear with Mist and Fog 50 10 50 10 100 100 Calm 30.12 1020 4 6 0.00 0.00
3:38 am 03:38 Clear with Mist and Fog 50 10 50 10 100 100 Calm 30.12 1020 2 2 0.00 0.00
3:53 am 03:53 Clear with Mist and Fog 50 10 50 10 100 100 Calm 30.13 1020 1 2 0.00 0.00
4:00 am 04:00 Clear with Mist and Fog 50 10 50 10 100 100 Calm 30.15 1021 3 5 0.00 0.00
4:53 am 04:53 Clear 50 10 49 9.4 96 96 N 3 6 30.14 1021 8 13 0.00 0.00
5:30 am 05:30 Clear with Mist and Fog 48 9 48 9 100 100 ENE 3 6 30.15 1021 2 3 0.00 0.00
5:39 am 05:39 Clear with Mist and Fog 49 9.4 49 9.4 100 100 NE 3 6 30.15 1021 3 5 0.00 0.00
5:53 am 05:53 Clear 49 9.4 49 9.4 100 100 NNE 5 7 30.16 1021 10 16 0.00 0.00
6:53 am 06:53 Clear with Mist and Fog 48 8.9 48 8.9 100 100 NNE 3 6 30.18 1022 5 8 0.00 0.00
7:53 am 07:53 Sunny 49 9.4 49 9.4 100 100 Calm 30.20 1023 9 14 0.00 0.00
8:53 am 08:53 Sunny 54 12.2 53 11.7 97 97 Calm 30.21 1023 10 16 0.00 0.00
9:53 am 09:53 Sunny 60 15.6 55 12.8 84 84 ENE 3 6 30.22 1023 10 16 0.00 0.00
10:53 am 10:53 Sunny 66 18.9 59 15 78 78 ESE 3 6 30.22 1023 10 16 0.00 0.00
12:53 pm 12:53 undefined 75 23.9 56 13.3 52 52 VRB 3 6 30.20 1023 10 16 0.00 0.00
1:53 pm 13:53 Mostly Sunny 78 25.6 57 13.9 48 48 Calm 30.19 1022 10 16 0.00 0.00
2:53 pm 14:53 Sunny 79 26.1 55 12.8 44 44 NE 8 13 30.17 1022 10 16 0.00 0.00
3:53 pm 15:53 Sunny 79 26.1 53 11.7 41 41 Calm 30.15 1021 10 16 0.00 0.00
4:53 pm 16:53 Sunny 80 26.7 54 12.2 41 41 Calm 30.15 1021 10 16 0.00 0.00
5:53 pm 17:53 Sunny 80 26.7 54 12.2 41 41 Calm 30.15 1021 10 16 0.00 0.00
6:53 pm 18:53 Sunny 77 25 56 13.3 48 48 ENE 3 6 30.16 1021 10 16 0.00 0.00
7:53 pm 19:53 Clear 65 18.3 60 15.6 84 84 S 3 6 30.17 1022 10 16 0.00 0.00
8:53 pm 20:53 Clear 62 16.7 59 15 90 90 Calm 30.19 1022 10 16 0.00 0.00
9:53 pm 21:53 Clear 60 15.6 58 14.4 93 93 Calm 30.20 1023 10 16 0.00 0.00
10:53 pm 22:53 Clear 59 15 57 13.9 93 93 Calm 30.20 1023 10 16 0.00 0.00
11:53 pm 23:53 Clear with Mist and Fog 57 13.9 57 13.9 100 100 Calm 30.21 1023 4 6 0.00 0.00
11:56 pm 23:56 Clear with Mist and Fog 57 13.9 57 13.9 100 100 Calm 30.21 1023 2 3 0.00 0.00

Powered by AerisWeather